| time (UTC) | temp F | wind direction | speed MPH | gust MPH | rain 1hr in | rain 24hr in | rain mn in | humidity % | barometer mb |
| 20260903200311 | 84 | 120 | 2.0 | 8.0 | 0.00 | 0.13 | 0.13 | 79 | 1013.8 |
| 20260903195806 | 84 | 157 | 4.0 | 6.0 | 0.00 | 0.13 | 0.13 | 78 | 1013.9 |
| 20260903195306 | 85 | 87 | 2.0 | 6.0 | 0.00 | 0.13 | 0.13 | 78 | 1014.1 |
| 20260903194757 | 85 | 116 | 1.0 | 2.0 | 0.00 | 0.13 | 0.13 | 79 | 1014.2 |
| 20260903194253 | 84 | 334 | 0.0 | 3.0 | 0.00 | 0.13 | 0.13 | 78 | 1014.1 |
| 20260903193748 | 84 | 143 | 3.0 | 4.0 | 0.00 | 0.13 | 0.13 | 78 | 1014.1 |
| 20260903193243 | 85 | 104 | 2.0 | 4.0 | 0.00 | 0.13 | 0.13 | 80 | 1014.2 |
| 20260903192739 | 85 | 160 | 2.0 | 4.0 | 0.00 | 0.13 | 0.13 | 78 | 1014.5 |
| 20260903192234 | 85 | 30 | 2.0 | 4.0 | 0.00 | 0.13 | 0.13 | 79 | 1014.4 |
| 20260903191731 | 85 | 123 | 2.0 | 3.0 | 0.00 | 0.13 | 0.13 | 78 | 1014.3 |
| 20260903191226 | 85 | 233 | 2.0 | 4.0 | 0.00 | 0.13 | 0.13 | 78 | 1014.2 |
| 20260903190720 | 84 | 109 | 3.0 | 5.0 | 0.00 | 0.13 | 0.13 | 79 | 1014.3 |
| 20260903190220 | 84 | 109 | 3.0 | 6.0 | 0.00 | 0.13 | 0.13 | 78 | 1014.5 |
| 20260903185716 | 85 | 158 | 2.0 | 6.0 | 0.00 | 0.13 | 0.13 | 79 | 1014.6 |
| 20260903185210 | 85 | 358 | 0.0 | 3.0 | 0.00 | 0.13 | 0.13 | 79 | 1014.5 |
| 20260903184707 | 85 | 227 | 2.0 | 5.0 | 0.00 | 0.13 | 0.13 | 78 | 1014.4 |
| 20260903184203 | 86 | 156 | 2.0 | 3.0 | 0.00 | 0.13 | 0.13 | 77 | 1014.7 |
| 20260903183701 | 86 | 138 | 2.0 | 5.0 | 0.00 | 0.13 | 0.13 | 76 | 1014.8 |
| 20260903183156 | 86 | 157 | 2.0 | 5.0 | 0.00 | 0.13 | 0.13 | 77 | 1014.7 |
| 20260903182655 | 86 | 129 | 1.0 | 6.0 | 0.00 | 0.13 | 0.13 | 79 | 1014.8 |
| 20260903182151 | 85 | 70 | 2.0 | 3.0 | 0.00 | 0.13 | 0.13 | 80 | 1014.8 |
| 20260903181649 | 84 | 173 | 1.0 | 4.0 | 0.00 | 0.13 | 0.13 | 81 | 1014.7 |
| 20260903181144 | 84 | 147 | 2.0 | 4.0 | 0.00 | 0.13 | 0.13 | 82 | 1014.8 |
| 20260903180639 | 84 | 135 | 4.0 | 6.0 | 0.00 | 0.13 | 0.13 | 82 | 1015.0 |
| 20260903180134 | 84 | 131 | 3.0 | 7.0 | 0.00 | 0.13 | 0.13 | 81 | 1014.8 |
| 20260903175633 | 84 | 159 | 2.0 | 4.0 | 0.00 | 0.13 | 0.13 | 81 | 1015.0 |
| 20260903175133 | 83 | 97 | 3.0 | 4.0 | 0.00 | 0.13 | 0.13 | 81 | 1015.0 |
| 20260903174627 | 84 | 152 | 2.0 | 5.0 | 0.00 | 0.13 | 0.13 | 80 | 1014.9 |
| 20260903174122 | 84 | 95 | 2.0 | 3.0 | 0.00 | 0.13 | 0.13 | 81 | 1015.1 |
| 20260903173617 | 84 | 155 | 4.0 | 6.0 | 0.00 | 0.13 | 0.13 | 80 | 1015.1 |
| 20260903173113 | 83 | 162 | 3.0 | 4.0 | 0.00 | 0.13 | 0.13 | 81 | 1014.9 |
| 20260903172608 | 82 | 126 | 6.0 | 6.0 | 0.00 | 0.13 | 0.13 | 82 | 1015.3 |
| 20260903172103 | 83 | 138 | 3.0 | 6.0 | 0.00 | 0.13 | 0.13 | 81 | 1015.2 |
| 20260903171603 | 82 | 139 | 2.0 | 5.0 | 0.00 | 0.13 | 0.13 | 82 | 1015.5 |
| 20260903171059 | 83 | 266 | 2.0 | 5.0 | 0.00 | 0.13 | 0.13 | 81 | 1015.5 |
| 20260903170557 | 83 | 138 | 3.0 | 3.0 | 0.00 | 0.13 | 0.13 | 82 | 1015.6 |
| 20260903170053 | 83 | 307 | 1.0 | 3.0 | 0.00 | 0.13 | 0.13 | 80 | 1015.7 |
| 20260903165550 | 83 | 67 | 2.0 | 4.0 | 0.00 | 0.13 | 0.13 | 80 | 1015.9 |
| 20260903165047 | 83 | 241 | 0.0 | 2.0 | 0.00 | 0.13 | 0.13 | 83 | 1015.7 |
| 20260903164546 | 83 | 20 | 1.0 | 5.0 | 0.00 | 0.13 | 0.13 | 81 | 1015.7 |
| 20260903164043 | 84 | 134 | 2.0 | 3.0 | 0.00 | 0.13 | 0.13 | 82 | 1016.1 |
| 20260903163542 | 83 | 292 | 0.0 | 2.0 | 0.00 | 0.13 | 0.13 | 83 | 1016.1 |
| 20260903163039 | 83 | 120 | 1.0 | 6.0 | 0.00 | 0.13 | 0.13 | 85 | 1016.3 |
| 20260903162535 | 83 | 236 | 2.0 | 3.0 | 0.00 | 0.13 | 0.13 | 86 | 1016.2 |
| 20260903162030 | 82 | 157 | 0.0 | 6.0 | 0.00 | 0.13 | 0.13 | 86 | 1016.0 |
| 20260903161526 | 82 | 331 | 0.0 | 5.0 | 0.00 | 0.13 | 0.13 | 89 | 1016.0 |
| 20260903161022 | 82 | 57 | 1.0 | 2.0 | 0.00 | 0.13 | 0.13 | 89 | 1015.8 |
| 20260903160520 | 82 | 141 | 3.0 | 5.0 | 0.00 | 0.13 | 0.13 | 88 | 1015.9 |
| 20260903160015 | 82 | 205 | 0.0 | 2.0 | 0.00 | 0.13 | 0.13 | 92 | 1015.9 |
| 20260903155514 | 81 | 168 | 3.0 | 3.0 | 0.00 | 0.13 | 0.13 | 91 | 1016.0 |
| 20260903155010 | 81 | 157 | 2.0 | 3.0 | 0.00 | 0.13 | 0.13 | 91 | 1016.0 |
| 20260903154506 | 81 | 138 | 2.0 | 2.0 | 0.02 | 0.13 | 0.13 | 92 | 1016.2 |
| 20260903154002 | 81 | 118 | 0.0 | 2.0 | 0.02 | 0.13 | 0.13 | 92 | 1016.1 |
| 20260903153457 | 80 | 175 | 2.0 | 2.0 | 0.00 | 0.13 | 0.13 | 91 | 1015.9 |
| 20260903152953 | 80 | 156 | 2.0 | 3.0 | 0.00 | 0.13 | 0.13 | 92 | 1016.0 |
| 20260903152448 | 80 | 168 | 1.0 | 2.0 | 0.02 | 0.13 | 0.13 | 94 | 1015.9 |
| 20260903151945 | 79 | 237 | 1.0 | 2.0 | 0.05 | 0.13 | 0.13 | 93 | 1016.0 |
| 20260903151444 | 79 | 47 | 0.0 | 2.0 | 0.05 | 0.12 | 0.12 | 93 | 1016.1 |
| 20260903150940 | 79 | 102 | 2.0 | 3.0 | 0.07 | 0.12 | 0.12 | 93 | 1016.0 |
| 20260903150439 | 79 | 98 | 1.0 | 2.0 | 0.07 | 0.11 | 0.11 | 95 | 1016.1 |
| 20260903145934 | 79 | 89 | 0.0 | 2.0 | 0.02 | 0.11 | 0.11 | 94 | 1016.1 |
| 20260903145429 | 79 | 294 | 0.0 | 2.0 | 0.02 | 0.10 | 0.10 | 94 | 1016.1 |
| 20260903144924 | 78 | 121 | 0.0 | 2.0 | 0.05 | 0.10 | 0.10 | 93 | 1016.1 |
| 20260903144423 | 79 | 177 | 2.0 | 2.0 | 0.05 | 0.10 | 0.10 | 93 | 1016.2 |
| 20260903143919 | 79 | 158 | 1.0 | 2.0 | 0.05 | 0.09 | 0.09 | 94 | 1016.1 |
| 20260903143416 | 79 | 82 | 1.0 | 2.0 | 0.05 | 0.09 | 0.09 | 96 | 1016.1 |
| 20260903142911 | 79 | 145 | 0.0 | 2.0 | 0.07 | 0.09 | 0.09 | 96 | 1016.2 |
| 20260903142407 | 79 | 89 | 0.0 | 2.0 | 0.09 | 0.08 | 0.08 | 96 | 1016.2 |
| 20260903141903 | 78 | 255 | 1.0 | 3.0 | 0.09 | 0.07 | 0.07 | 95 | 1016.1 |
| 20260903141358 | 78 | 167 | 2.0 | 3.0 | 0.05 | 0.06 | 0.06 | 95 | 1016.2 |
| 20260903140854 | 78 | 344 | 1.0 | 3.0 | 0.05 | 0.06 | 0.06 | 94 | 1015.9 |
| 20260903140348 | 79 | 124 | 2.0 | 2.0 | 0.02 | 0.06 | 0.06 | 95 | 1015.8 |
| 20260903135844 | 79 | 135 | 0.0 | 2.0 | 0.00 | 0.05 | 0.05 | 95 | 1015.7 |
| 20260903135339 | 79 | 72 | 2.0 | 2.0 | 0.02 | 0.05 | 0.05 | 95 | 1015.8 |
| 20260903134838 | 79 | 106 | 0.0 | 2.0 | 0.07 | 0.05 | 0.05 | 95 | 1015.5 |
| 20260903134334 | 79 | 356 | 0.0 | 2.0 | 0.07 | 0.05 | 0.05 | 96 | 1015.6 |
| 20260903133831 | 79 | 326 | 2.0 | 3.0 | 0.02 | 0.04 | 0.04 | 96 | 1015.7 |
| 20260903133328 | 78 | 284 | 0.0 | 2.0 | 0.00 | 0.04 | 0.04 | 96 | 1015.8 |
| 20260903132828 | 78 | 78 | 1.0 | 3.0 | 0.00 | 0.04 | 0.04 | 96 | 1015.7 |
| 20260903132324 | 79 | 128 | 1.0 | 2.0 | 0.00 | 0.04 | 0.04 | 96 | 1015.7 |
| 20260903131818 | 78 | 226 | 0.0 | 2.0 | 0.00 | 0.04 | 0.04 | 96 | 1015.3 |
| 20260903131318 | 79 | 140 | 1.0 | 1.0 | 0.00 | 0.04 | 0.04 | 97 | 1015.4 |
| 20260903130812 | 78 | 217 | 0.0 | 2.0 | 0.00 | 0.04 | 0.04 | 97 | 1015.2 |
| 20260903130312 | 78 | 48 | 0.0 | 2.0 | 0.00 | 0.04 | 0.04 | 97 | 1015.3 |
| 20260903125811 | 78 | 277 | 0.0 | 2.0 | 0.00 | 0.04 | 0.04 | 97 | 1015.2 |
| 20260903125306 | 78 | 181 | 0.0 | 1.0 | 0.02 | 0.04 | 0.04 | 97 | 1015.3 |
| 20260903124805 | 78 | 284 | 1.0 | 2.0 | 0.02 | 0.04 | 0.04 | 97 | 1015.3 |
| 20260903124301 | 78 | 249 | 2.0 | 2.0 | 0.05 | 0.03 | 0.03 | 98 | 1015.3 |
| 20260903123759 | 78 | 13 | 0.0 | 4.0 | 0.09 | 0.03 | 0.03 | 98 | 1015.3 |
| 20260903123259 | 78 | 4 | 2.0 | 2.0 | 0.09 | 0.02 | 0.02 | 98 | 1015.6 |
| 20260903122758 | 77 | 59 | 0.0 | 2.0 | 0.07 | 0.02 | 0.02 | 98 | 1015.4 |
| 20260903122253 | 77 | 359 | 3.0 | 4.0 | 0.02 | 0.01 | 0.01 | 98 | 1015.5 |
| 20260903121751 | 77 | 308 | 0.0 | 2.0 | 0.00 | 0.00 | 0.00 | 99 | 1015.5 |
| 20260903121247 | 77 | 34 | 0.0 | 2.0 | 0.00 | 0.00 | 0.00 | 99 | 1015.4 |
| 20260903120743 | 77 | 56 | 0.0 | 2.0 | 0.00 | 0.00 | 0.00 | 99 | 1015.3 |
| 20260903120242 | 77 | 346 | 0.0 | 1.0 | 0.00 | 0.00 | 0.00 | 99 | 1015.2 |
| 20260903115740 | 77 | 309 | 0.0 | 2.0 | 0.00 | 0.00 | 0.00 | 98 | 1015.2 |
| 20260903115235 | 77 | 119 | 0.0 | 0.0 | 0.00 | 0.00 | 0.00 | 98 | 1015.2 |
| 20260903114730 | 77 | 71 | 0.0 | 0.0 | 0.00 | 0.00 | 0.00 | 99 | 1015.2 |
| 20260903114226 | 77 | 311 | 0.0 | 0.0 | 0.00 | 0.00 | 0.00 | 98 | 1015.2 |
| 20260903113721 | 76 | 271 | 1.0 | 2.0 | 0.00 | 0.00 | 0.00 | 98 | 1015.0 |
| 20260903113217 | 76 | 294 | 0.0 | 0.0 | 0.00 | 0.00 | 0.00 | 98 | 1014.8 |
| 20260903112713 | 76 | 36 | 0.0 | 0.0 | 0.00 | 0.00 | 0.00 | 98 | 1015.0 |
| 20260903112208 | 76 | 331 | 0.0 | 0.0 | 0.00 | 0.00 | 0.00 | 98 | 1014.7 |
| 20260903111706 | 76 | 315 | 0.0 | 0.0 | 0.00 | 0.00 | 0.00 | 98 | 1014.8 |
| 20260903111202 | 76 | 328 | 0.0 | 1.0 | 0.00 | 0.00 | 0.00 | 98 | 1014.9 |
| 20260903110658 | 76 | 328 | 0.0 | 0.0 | 0.00 | 0.00 | 0.00 | 98 | 1014.8 |
| 20260903110154 | 76 | 311 | 0.0 | 0.0 | 0.00 | 0.00 | 0.00 | 98 | 1014.5 |
| 20260903105653 | 76 | 326 | 0.0 | 0.0 | 0.00 | 0.00 | 0.00 | 98 | 1014.4 |
| 20260903105148 | 76 | 315 | 0.0 | 1.0 | 0.00 | 0.00 | 0.00 | 98 | 1014.3 |
| 20260903104648 | 76 | 330 | 1.0 | 1.0 | 0.00 | 0.00 | 0.00 | 98 | 1014.6 |
| 20260903104144 | 76 | 358 | 0.0 | 1.0 | 0.00 | 0.00 | 0.00 | 98 | 1014.4 |
| 20260903103639 | 76 | 315 | 0.0 | 0.0 | 0.00 | 0.00 | 0.00 | 98 | 1014.2 |
| 20260903103136 | 76 | 311 | 0.0 | 1.0 | 0.00 | 0.00 | 0.00 | 98 | 1014.0 |
| 20260903102631 | 76 | 248 | 0.0 | 1.0 | 0.00 | 0.00 | 0.00 | 98 | 1014.2 |
| 20260903102130 | 76 | 17 | 0.0 | 0.0 | 0.00 | 0.00 | 0.00 | 98 | 1014.0 |
| 20260903101629 | 76 | 328 | 0.0 | 0.0 | 0.00 | 0.00 | 0.00 | 98 | 1014.1 |
| 20260903101125 | 76 | 311 | 0.0 | 0.0 | 0.00 | 0.00 | 0.00 | 98 | 1013.7 |
| 20260903100626 | 76 | 323 | 0.0 | 0.0 | 0.00 | 0.00 | 0.00 | 98 | 1014.2 |
| 20260903100125 | 76 | 311 | 0.0 | 1.0 | 0.00 | 0.00 | 0.00 | 97 | 1014.0 |
| 20260903095623 | 76 | 289 | 1.0 | 1.0 | 0.02 | 0.00 | 0.00 | 98 | 1013.8 |
| 20260903095122 | 76 | 21 | 0.0 | 0.0 | 0.02 | 0.00 | 0.00 | 98 | 1013.9 |
| 20260903094617 | 76 | 343 | 0.0 | 0.0 | 0.00 | 0.00 | 0.00 | 98 | 1013.9 |
| 20260903094113 | 76 | 319 | 0.0 | 0.0 | 0.00 | 0.00 | 0.00 | 98 | 1014.0 |
| 20260903093608 | 76 | 334 | 0.0 | 0.0 | 0.00 | 0.00 | 0.00 | 98 | 1014.1 |
| 20260903093103 | 76 | 44 | 0.0 | 0.0 | 0.00 | 0.00 | 0.00 | 97 | 1014.0 |
| 20260903092603 | 76 | 15 | 0.0 | 0.0 | 0.00 | 0.00 | 0.00 | 98 | 1013.9 |
| 20260903092057 | 76 | 13 | 0.0 | 1.0 | 0.00 | 0.00 | 0.00 | 98 | 1013.9 |
| 20260903091556 | 77 | 308 | 0.0 | 0.0 | 0.00 | 0.00 | 0.00 | 98 | 1013.8 |
| 20260903091050 | 76 | 341 | 0.0 | 1.0 | 0.00 | 0.00 | 0.00 | 97 | 1013.7 |
| 20260903090547 | 77 | 328 | 0.0 | 1.0 | 0.00 | 0.00 | 0.00 | 97 | 1013.7 |
| 20260903090045 | 76 | 332 | 0.0 | 0.0 | 0.00 | 0.00 | 0.00 | 97 | 1013.5 |
| 20260903085544 | 76 | 335 | 0.0 | 0.0 | 0.00 | 0.00 | 0.00 | 97 | 1013.6 |
| 20260903085039 | 76 | 315 | 0.0 | 0.0 | 0.00 | 0.00 | 0.00 | 97 | 1013.7 |
| 20260903084538 | 77 | 341 | 0.0 | 0.0 | 0.00 | 0.00 | 0.00 | 97 | 1013.9 |
| 20260903084032 | 77 | 346 | 0.0 | 0.0 | 0.00 | 0.00 | 0.00 | 97 | 1013.8 |
| 20260903083528 | 77 | 338 | 0.0 | 0.0 | 0.00 | 0.00 | 0.00 | 97 | 1013.6 |
| 20260903083028 | 77 | 323 | 0.0 | 0.0 | 0.00 | 0.00 | 0.00 | 97 | 1013.5 |
| 20260903082522 | 77 | 337 | 0.0 | 0.0 | 0.00 | 0.00 | 0.00 | 97 | 1013.7 |
| 20260903082018 | 77 | 342 | 0.0 | 1.0 | 0.00 | 0.00 | 0.00 | 97 | 1013.7 |
| 20260903081513 | 77 | 345 | 0.0 | 1.0 | 0.00 | 0.00 | 0.00 | 97 | 1013.6 |
| 20260903081009 | 77 | 329 | 0.0 | 1.0 | 0.00 | 0.00 | 0.00 | 97 | 1013.7 |
| 20260903080505 | 77 | 304 | 0.0 | 2.0 | 0.00 | 0.00 | 0.00 | 96 | 1013.4 |
| 20260903080002 | 77 | 293 | 0.0 | 1.0 | 0.00 | 0.00 | 0.00 | 97 | 1013.3 |
| 20260903075456 | 77 | 327 | 0.0 | 1.0 | 0.00 | 0.00 | 0.00 | 96 | 1013.5 |
| 20260903074951 | 77 | 315 | 0.0 | 0.0 | 0.00 | 0.00 | 0.00 | 96 | 1013.6 |
| 20260903074450 | 77 | 324 | 0.0 | 1.0 | 0.00 | 0.00 | 0.00 | 96 | 1013.8 |
| 20260903073945 | 77 | 11 | 0.0 | 1.0 | 0.00 | 0.00 | 0.00 | 96 | 1013.6 |
| 20260903073440 | 77 | 309 | 0.0 | 1.0 | 0.00 | 0.00 | 0.00 | 96 | 1013.7 |
| 20260903072936 | 77 | 113 | 0.0 | 0.0 | 0.00 | 0.00 | 0.00 | 96 | 1013.7 |
| 20260903072432 | 77 | 318 | 0.0 | 1.0 | 0.00 | 0.00 | 0.00 | 96 | 1013.9 |
| 20260903071929 | 77 | 334 | 0.0 | 0.0 | 0.00 | 0.00 | 0.00 | 96 | 1013.8 |
| 20260903071425 | 77 | 331 | 0.0 | 1.0 | 0.00 | 0.00 | 0.00 | 96 | 1014.0 |
| 20260903070920 | 77 | 303 | 0.0 | 1.0 | 0.00 | 0.00 | 0.00 | 96 | 1013.7 |
| 20260903070414 | 77 | 315 | 0.0 | 1.0 | 0.00 | 0.00 | 0.00 | 95 | 1013.9 |
| 20260903065909 | 77 | 331 | 0.0 | 1.0 | 0.00 | 0.00 | 0.00 | 95 | 1013.9 |
| 20260903065409 | 77 | 312 | 0.0 | 1.0 | 0.00 | 0.00 | 0.00 | 95 | 1013.9 |
| 20260903064908 | 77 | 328 | 0.0 | 1.0 | 0.00 | 0.00 | 0.00 | 95 | 1014.0 |
| 20260903064403 | 77 | 318 | 0.0 | 1.0 | 0.00 | 0.00 | 0.00 | 95 | 1014.3 |
| 20260903063859 | 77 | 330 | 0.0 | 1.0 | 0.00 | 0.00 | 0.00 | 95 | 1014.4 |
| 20260903063354 | 77 | 274 | 0.0 | 1.0 | 0.00 | 0.00 | 0.00 | 94 | 1014.2 |
| 20260903062849 | 78 | 315 | 0.0 | 1.0 | 0.00 | 0.00 | 0.00 | 94 | 1014.1 |
| 20260903062344 | 78 | 318 | 0.0 | 0.0 | 0.00 | 0.00 | 0.00 | 95 | 1014.5 |
| 20260903061840 | 78 | 311 | 0.0 | 1.0 | 0.00 | 0.00 | 0.00 | 94 | 1014.2 |
| 20260903061339 | 78 | 301 | 0.0 | 0.0 | 0.00 | 0.00 | 0.00 | 94 | 1014.3 |
| 20260903060836 | 78 | 336 | 0.0 | 2.0 | 0.00 | 0.00 | 0.00 | 94 | 1014.4 |
| 20260903060335 | 78 | 43 | 1.0 | 1.0 | 0.00 | 0.00 | 0.00 | 94 | 1014.4 |
| 20260903055832 | 78 | 309 | 0.0 | 0.0 | 0.00 | 0.00 | 0.00 | 94 | 1014.6 |
| 20260903055331 | 78 | 298 | 0.0 | 1.0 | 0.00 | 0.00 | 0.00 | 94 | 1014.6 |
| 20260903054826 | 78 | 297 | 1.0 | 2.0 | 0.00 | 0.00 | 0.00 | 93 | 1014.7 |
| 20260903054326 | 78 | 277 | 0.0 | 2.0 | 0.00 | 0.00 | 0.00 | 93 | 1014.8 |
| 20260903053823 | 78 | 276 | 0.0 | 1.0 | 0.00 | 0.00 | 0.00 | 93 | 1014.6 |
| 20260903053317 | 78 | 324 | 1.0 | 2.0 | 0.00 | 0.00 | 0.00 | 93 | 1014.8 |
| 20260903052813 | 78 | 42 | 1.0 | 2.0 | 0.00 | 0.00 | 0.00 | 93 | 1014.7 |
| 20260903052308 | 78 | 357 | 0.0 | 1.0 | 0.00 | 0.00 | 0.00 | 93 | 1015.1 |
| 20260903051804 | 78 | 178 | 0.0 | 0.0 | 0.00 | 0.00 | 0.00 | 93 | 1014.9 |
| 20260903051259 | 78 | 286 | 0.0 | 0.0 | 0.00 | 0.00 | 0.00 | 93 | 1015.0 |
| 20260903050754 | 78 | 137 | 0.0 | 1.0 | 0.00 | 0.00 | 0.00 | 93 | 1015.1 |
| 20260903050254 | 78 | 108 | 0.0 | 0.0 | 0.00 | 0.00 | 0.00 | 92 | 1015.2 |
| 20260903045748 | 78 | 269 | 0.0 | 2.0 | 0.00 | 0.00 | 0.00 | 92 | 1015.3 |
| 20260903045245 | 78 | 277 | 0.0 | 0.0 | 0.00 | 0.00 | 0.00 | 92 | 1015.1 |
| 20260903044741 | 78 | 282 | 0.0 | 1.0 | 0.00 | 0.00 | 0.00 | 92 | 1015.4 |
| 20260903044236 | 79 | 279 | 0.0 | 0.0 | 0.00 | 0.00 | 0.00 | 92 | 1015.3 |
| 20260903043733 | 79 | 299 | 0.0 | 0.0 | 0.00 | 0.00 | 0.00 | 92 | 1015.5 |
| 20260903043232 | 78 | 121 | 0.0 | 2.0 | 0.00 | 0.00 | 0.00 | 92 | 1015.5 |
| 20260903042731 | 79 | 145 | 0.0 | 2.0 | 0.00 | 0.00 | 0.00 | 92 | 1015.3 |
| 20260903042227 | 79 | 265 | 0.0 | 1.0 | 0.00 | 0.00 | 0.00 | 91 | 1015.6 |
| 20260903041723 | 79 | 356 | 0.0 | 2.0 | 0.00 | 0.00 | 0.00 | 91 | 1015.5 |
| 20260903041219 | 79 | 325 | 0.0 | 2.0 | 0.00 | 0.00 | 0.00 | 91 | 1015.2 |
| 20260903040719 | 79 | 30 | 0.0 | 2.0 | 0.00 | 0.00 | 0.00 | 91 | 1015.3 |
| 20260903040214 | 79 | 262 | 0.0 | 1.0 | 0.00 | 0.00 | 0.00 | 91 | 1015.3 |
| 20260903035710 | 79 | 108 | 0.0 | 1.0 | 0.00 | 0.01 | 0.01 | 91 | 1015.4 |
| 20260903035205 | 79 | 315 | 0.0 | 0.0 | 0.00 | 0.01 | 0.01 | 91 | 1015.5 |
| 20260903034705 | 79 | 145 | 0.0 | 0.0 | 0.00 | 0.01 | 0.01 | 91 | 1015.6 |
| 20260903034200 | 79 | 65 | 0.0 | 1.0 | 0.00 | 0.01 | 0.01 | 91 | 1015.5 |
| 20260903033656 | 79 | 108 | 0.0 | 2.0 | 0.00 | 0.01 | 0.01 | 91 | 1015.6 |
| 20260903033155 | 79 | 106 | 0.0 | 3.0 | 0.00 | 0.01 | 0.01 | 91 | 1015.6 |
| 20260903032650 | 79 | 120 | 1.0 | 3.0 | 0.00 | 0.01 | 0.01 | 91 | 1015.6 |
| 20260903032146 | 79 | 132 | 0.0 | 2.0 | 0.00 | 0.01 | 0.01 | 91 | 1015.6 |
| 20260903031641 | 79 | 89 | 0.0 | 2.0 | 0.00 | 0.01 | 0.01 | 91 | 1015.3 |
| 20260903031136 | 79 | 211 | 0.0 | 2.0 | 0.00 | 0.01 | 0.01 | 90 | 1015.7 |
| 20260903030632 | 79 | 138 | 2.0 | 2.0 | 0.00 | 0.01 | 0.01 | 90 | 1015.5 |
| 20260903030127 | 80 | 202 | 2.0 | 2.0 | 0.00 | 0.01 | 0.01 | 90 | 1015.5 |
| 20260903025628 | 80 | 166 | 0.0 | 3.0 | 0.00 | 0.01 | 0.01 | 89 | 1015.8 |
| 20260903025123 | 80 | 63 | 0.0 | 4.0 | 0.00 | 0.01 | 0.01 | 89 | 1015.7 |
| 20260903024618 | 80 | 55 | 2.0 | 3.0 | 0.00 | 0.01 | 0.01 | 89 | 1015.6 |
| 20260903024112 | 80 | 224 | 0.0 | 4.0 | 0.00 | 0.01 | 0.01 | 89 | 1015.4 |
| 20260903023609 | 80 | 227 | 0.0 | 2.0 | 0.00 | 0.01 | 0.01 | 88 | 1015.3 |
| 20260903023108 | 80 | 265 | 2.0 | 2.0 | 0.00 | 0.01 | 0.01 | 89 | 1015.2 |
| 20260903022603 | 80 | 55 | 0.0 | 3.0 | 0.00 | 0.01 | 0.01 | 89 | 1015.3 |
| 20260903022102 | 80 | 273 | 0.0 | 4.0 | 0.00 | 0.01 | 0.01 | 89 | 1015.5 |
| 20260903021557 | 80 | 237 | 1.0 | 4.0 | 0.00 | 0.01 | 0.01 | 88 | 1015.4 |
| 20260903021057 | 80 | 81 | 2.0 | 4.0 | 0.00 | 0.01 | 0.01 | 89 | 1015.5 |
| 20260903020553 | 80 | 51 | 0.0 | 3.0 | 0.00 | 0.01 | 0.01 | 89 | 1015.5 |
| 20260903020052 | 80 | 160 | 4.0 | 4.0 | 0.00 | 0.01 | 0.01 | 88 | 1015.5 |
| 20260903015548 | 80 | 3 | 6.0 | 6.0 | 0.00 | 0.01 | 0.01 | 87 | 1015.6 |
| 20260903015043 | 80 | 107 | 0.0 | 3.0 | 0.00 | 0.01 | 0.01 | 86 | 1015.9 |
| 20260903014543 | 80 | 341 | 4.0 | 5.0 | 0.00 | 0.01 | 0.01 | 87 | 1015.8 |
| 20260903014038 | 80 | 311 | 0.0 | 2.0 | 0.00 | 0.01 | 0.01 | 89 | 1015.4 |
| 20260903013537 | 80 | 318 | 1.0 | 3.0 | 0.00 | 0.01 | 0.01 | 89 | 1015.4 |
| 20260903013032 | 80 | 77 | 0.0 | 2.0 | 0.00 | 0.01 | 0.01 | 89 | 1015.3 |
| 20260903012531 | 80 | 71 | 0.0 | 2.0 | 0.00 | 0.01 | 0.01 | 89 | 1015.2 |
| 20260903012031 | 80 | 230 | 1.0 | 3.0 | 0.00 | 0.01 | 0.01 | 89 | 1015.2 |
| 20260903011531 | 80 | 32 | 4.0 | 4.0 | 0.00 | 0.01 | 0.01 | 88 | 1015.2 |
| 20260903011026 | 80 | 8 | 0.0 | 2.0 | 0.00 | 0.01 | 0.01 | 88 | 1014.8 |
| 20260903010521 | 80 | 131 | 0.0 | 2.0 | 0.00 | 0.01 | 0.01 | 88 | 1015.1 |
| 20260903010019 | 80 | 279 | 0.0 | 2.0 | 0.00 | 0.01 | 0.01 | 88 | 1015.0 |
| 20260903005514 | 80 | 342 | 3.0 | 3.0 | 0.00 | 0.01 | 0.01 | 88 | 1014.9 |
| 20260903005010 | 80 | 209 | 1.0 | 3.0 | 0.00 | 0.01 | 0.01 | 88 | 1015.0 |
| 20260903004509 | 81 | 12 | 2.0 | 3.0 | 0.00 | 0.01 | 0.01 | 88 | 1015.2 |
| 20260903004005 | 81 | 355 | 0.0 | 2.0 | 0.00 | 0.01 | 0.01 | 87 | 1015.0 |
| 20260903003500 | 81 | 66 | 2.0 | 4.0 | 0.00 | 0.01 | 0.01 | 88 | 1015.0 |
| 20260903002955 | 81 | 37 | 0.0 | 1.0 | 0.00 | 0.01 | 0.01 | 87 | 1015.2 |
| 20260903002455 | 81 | 226 | 0.0 | 2.0 | 0.00 | 0.01 | 0.01 | 87 | 1015.0 |
| 20260903001955 | 81 | 219 | 0.0 | 2.0 | 0.00 | 0.01 | 0.01 | 87 | 1015.0 |
| 20260903001450 | 81 | 69 | 2.0 | 2.0 | 0.00 | 0.01 | 0.01 | 87 | 1015.2 |
| 20260903000949 | 81 | 89 | 0.0 | 2.0 | 0.00 | 0.01 | 0.01 | 87 | 1015.0 |
| 20260903000447 | 81 | 25 | 0.0 | 3.0 | 0.00 | 0.01 | 0.01 | 87 | 1015.1 |
| 20260902235943 | 81 | 131 | 0.0 | 2.0 | 0.00 | 0.01 | 0.01 | 87 | 1015.0 |
| 20260902235439 | 82 | 260 | 0.0 | 2.0 | 0.00 | 0.01 | 0.01 | 87 | 1015.1 |
| 20260902234938 | 82 | 67 | 2.0 | 3.0 | 0.02 | 0.01 | 0.01 | 86 | 1015.0 |
| 20260902234433 | 82 | 319 | 0.0 | 1.0 | 0.05 | 0.01 | 0.01 | 85 | 1014.9 |
| 20260902233927 | 82 | 273 | 2.0 | 3.0 | 0.02 | 0.01 | 0.01 | 85 | 1015.0 |
| 20260902233427 | 82 | 349 | 2.0 | 2.0 | 0.00 | 0.00 | 0.00 | 84 | 1014.7 |
| 20260902232926 | 82 | 223 | 1.0 | 3.0 | 0.00 | 0.00 | 0.00 | 83 | 1014.7 |
| 20260902232421 | 82 | 117 | 2.0 | 6.0 | 0.00 | 0.00 | 0.00 | 83 | 1014.5 |
| 20260902231920 | 82 | 258 | 2.0 | 2.0 | 0.00 | 0.00 | 0.00 | 83 | 1014.6 |
| 20260902231416 | 82 | 126 | 0.0 | 4.0 | 0.00 | 0.00 | 0.00 | 83 | 1014.5 |
| 20260902230910 | 82 | 295 | 1.0 | 4.0 | 0.00 | 0.00 | 0.00 | 83 | 1014.4 |
| 20260902230410 | 82 | 288 | 1.0 | 4.0 | 0.00 | 0.00 | 0.00 | 82 | 1014.3 |
| 20260902225904 | 83 | 45 | 5.0 | 5.0 | 0.00 | 0.00 | 0.00 | 81 | 1014.2 |
| 20260902225359 | 83 | 116 | 2.0 | 2.0 | 0.00 | 0.00 | 0.00 | 80 | 1014.2 |
| 20260902224857 | 83 | 118 | 0.0 | 3.0 | 0.00 | 0.00 | 0.00 | 81 | 1014.2 |
| 20260902224352 | 83 | 136 | 2.0 | 3.0 | 0.00 | 0.00 | 0.00 | 80 | 1014.1 |
| 20260902223849 | 83 | 53 | 3.0 | 5.0 | 0.00 | 0.00 | 0.00 | 81 | 1014.2 |
| 20260902223348 | 83 | 160 | 2.0 | 4.0 | 0.00 | 0.00 | 0.00 | 80 | 1014.2 |
| 20260902222843 | 84 | 132 | 4.0 | 5.0 | 0.00 | 0.00 | 0.00 | 79 | 1014.1 |
| 20260902222342 | 84 | 344 | 2.0 | 4.0 | 0.00 | 0.00 | 0.00 | 79 | 1014.1 |
| 20260902221836 | 84 | 79 | 2.0 | 6.0 | 0.00 | 0.00 | 0.00 | 78 | 1014.1 |
| 20260902221335 | 85 | 81 | 2.0 | 6.0 | 0.00 | 0.00 | 0.00 | 77 | 1013.9 |
| 20260902220831 | 85 | 183 | 0.0 | 3.0 | 0.00 | 0.00 | 0.00 | 77 | 1014.0 |
| 20260902220331 | 85 | 48 | 0.0 | 2.0 | 0.00 | 0.00 | 0.00 | 78 | 1013.8 |
| 20260902215827 | 85 | 82 | 0.0 | 1.0 | 0.00 | 0.00 | 0.00 | 77 | 1013.8 |
| 20260902215327 | 85 | 294 | 1.0 | 2.0 | 0.00 | 0.00 | 0.00 | 77 | 1013.8 |
| 20260902214823 | 85 | 35 | 0.0 | 3.0 | 0.00 | 0.00 | 0.00 | 76 | 1014.1 |
| 20260902214321 | 85 | 269 | 0.0 | 3.0 | 0.00 | 0.00 | 0.00 | 76 | 1014.1 |
| 20260902213817 | 85 | 177 | 0.0 | 3.0 | 0.00 | 0.00 | 0.00 | 77 | 1014.2 |
| 20260902213312 | 85 | 109 | 2.0 | 3.0 | 0.00 | 0.00 | 0.00 | 76 | 1014.1 |
| 20260902212811 | 85 | 53 | 2.0 | 2.0 | 0.00 | 0.00 | 0.00 | 76 | 1014.1 |
| 20260902212308 | 85 | 134 | 1.0 | 2.0 | 0.00 | 0.00 | 0.00 | 75 | 1014.3 |
| 20260902211804 | 85 | 332 | 1.0 | 2.0 | 0.00 | 0.00 | 0.00 | 76 | 1014.6 |
| 20260902211300 | 85 | 135 | 2.0 | 3.0 | 0.00 | 0.00 | 0.00 | 75 | 1014.5 |
| 20260902210800 | 85 | 131 | 1.0 | 2.0 | 0.00 | 0.00 | 0.00 | 76 | 1014.5 |
| 20260902210254 | 85 | 136 | 2.0 | 4.0 | 0.00 | 0.00 | 0.00 | 75 | 1014.4 |
| 20260902205752 | 85 | 165 | 1.0 | 2.0 | 0.00 | 0.00 | 0.00 | 76 | 1014.5 |
| 20260902205248 | 85 | 139 | 1.0 | 3.0 | 0.00 | 0.00 | 0.00 | 75 | 1014.4 |
| 20260902204743 | 85 | 342 | 2.0 | 4.0 | 0.00 | 0.00 | 0.00 | 74 | 1014.5 |
| 20260902204239 | 85 | 87 | 2.0 | 3.0 | 0.00 | 0.00 | 0.00 | 76 | 1014.5 |
| 20260902203738 | 85 | 44 | 2.0 | 5.0 | 0.00 | 0.00 | 0.00 | 74 | 1013.8 |
| 20260902203233 | 85 | 49 | 2.0 | 5.0 | 0.00 | 0.00 | 0.00 | 76 | 1014.0 |
| 20260902202728 | 85 | 128 | 2.0 | 4.0 | 0.00 | 0.00 | 0.00 | 75 | 1013.9 |
| 20260902202225 | 85 | 222 | 0.0 | 4.0 | 0.00 | 0.00 | 0.00 | 77 | 1014.1 |
| 20260902201721 | 85 | 92 | 3.0 | 6.0 | 0.00 | 0.00 | 0.00 | 75 | 1013.9 |
| 20260902201219 | 85 | 160 | 3.0 | 8.0 | 0.00 | 0.00 | 0.00 | 75 | 1014.5 |
| 20260902200715 | 86 | 208 | 1.0 | 3.0 | 0.00 | 0.00 | 0.00 | 73 | 1014.7 |